User: anonymous   Login
Location: Unspecified
(0.0000°N, 0.0000°E)
Time: 01:07:50
(UTC+00:00)
Language:

STARLINK-5449 - Orbit

View from above orbital plane
View from above orbital plane
View from above satellite
View from above satellite

Ground track
Ground track

The orbit is defined by the following mean orbital elements,

1 54780U          26145.41423750 +.00000000 +00000-0 +18265-6 0 00009
2 54780  53.2127  44.5909 0001319  87.6872 272.4271 15.08836508    08
Epoch (UTC): 25 May 2026 09:56:30
Eccentricity: 0.0001319
inclination: 53.2127°
perigee height: 539 km
apogee height: 541 km
right ascension of ascending node: 44.5909°
argument of perigee: 87.6872°
revolutions per day: 15.08836508
mean anomaly at epoch: 272.4271°

The dashed part of the orbit path shows where the satellite is in the earth's shadow,  

DLR